STARLINK-37059, 68088

Orbit data source: Space-Track

STARLINK-37059, 68088 is a payload satellite owned by SpaceX/Seattle (US) in LEO that was launched on Wed, 04 Mar 2026 UTC via an FALCON 9 launch vehicle from the Air Force Eastern Test Range (AFETR). Payload-class satellites include a variety of spacecraft equipped with specific instruments for various scientific and technological missions. These include communications satellites like Starlink; space stations such as the ISS; scientific satellites like the Hubble; Earth observation satellites from companies like Planet Labs, Umbra, and HawkEye 360; GPS; miniature CubeSats for education and research; and military/defense satellites.

Loading next visibility...
Identifier
68088, 2026-042V
Orbit
LEO
Country
Flag of USUS
Related business
Manufacturer
SpaceX/Seattle
Mission
Operational spacecraft
Bus & Motor
STARLINK V2MO, Unknown motor
Mass
575 kg wet, ~530 kg dry
Launch date (UTC)
2026-03-04 (1 month ago)
Launch vehicle
FALCON 9
Launch site
Air Force Eastern Test Range (AFETR)
Object type
Payload
Rocket body
Debris
Shape & HBR
Unknown shape, 17.7 m
Radar Cross Section
RCS unknown

Expand to show TLE details & history
Last TLE update: 7 hours ago

TLE from 7 hours ago
0 STARLINK-37059
1 68088U 26042V   26100.52887998  .00241789  00000-0  15289-2 0  9997
2 68088  53.1598  35.5960 0001731  63.7778 296.3421 15.75357892  7119
Epoch: 2026-04-10T12:41Z
TLE epoch observation values (Epoch: 2026-04-10T12:41:35.230Z)
Latitude
0.00006°
Longitude
6.43801°
Altitude
344.014 km
Speed
7.704 km/s
True Right ascension
02h 22m 23s
True Declination
0° 00' 00"
Sunlit
Object was in daylight at epoch
Visualization orbit readout
Latitude
Unknown
Longitude
Unknown
Altitude
Unknown
Speed
Unknown
Apparent Right ascension
Unknown
Apparent Declination
Unknown
Sunlit
N/A
Visualization observer readout
Local Sidereal Time
02:03:56
Azimuth
Unknown
Elevation
Unknown
Doppler factor
Unknown
Orbital elements
Apogee altitude
345.038 km
Perigee altitude
342.711 km
Semi-major axis
6,722.011 km
Eccentricity
0.00017
Inclination
53.1598°
RAAN
35.596°
Arg. of periapsis
63.7778°
True anomaly
296.32432°
Mean anomaly
296.3421°
Eccentric anomaly
296.33321°
Mean motion
3.93817 °/min
Orbital period
91.41 mins
BSTAR
0.0015289
Loading maneuver chart data...
Computing Atmospheric mass density...
Loading historical data...
Loading historical data...
Loading historical data...
Loading historical data...
Loading historical data...
Loading historical data...
Loading historical data...

Documentation

Showing up to 5 results
|